• In Spain
  • List of Countries
  • For 7 days
  • Water Temperature
  • Satellite Maps
  • Weather Map
  • Weather Widgets
  • user-avatar
    Login

    Hourly Weather Potosi

    Today, 13 November, Tuesday

    Time Temperature Precipitation Wind Pressure Humidity
    00:00 +12°C° 0.3 mm 1 mps 468 mmHg 43%
    01:00 +12°C° 0.3 mm 1 mps 468 mmHg 42%
    02:00 +12°C° 0.3 mm 1 mps 468 mmHg 42%
    03:00 +11°C° 0 mm 1 mps 468 mmHg 40%
    04:00 +11°C° 0 mm 1 mps 467 mmHg 38%
    05:00 +10°C° 0 mm 1 mps 467 mmHg 36%
    06:00 +10°C° 0 mm 2 mps 468 mmHg 30%
    07:00 +12°C° 0 mm 2 mps 469 mmHg 25%
    08:00 +13°C° 0 mm 2 mps 470 mmHg 19%
    09:00 +14°C° 0 mm 2 mps 470 mmHg 17%
    10:00 +15°C° 0 mm 2 mps 471 mmHg 15%
    11:00 +16°C° 0 mm 2 mps 472 mmHg 12%
    12:00 +17°C° 0 mm 2 mps 471 mmHg 13%
    13:00 +18°C° 0 mm 3 mps 471 mmHg 14%
    14:00 +18°C° 0 mm 3 mps 471 mmHg 14%
    15:00 +18°C° 0.2 mm 4 mps 471 mmHg 19%
    16:00 +16°C° 0.2 mm 5 mps 470 mmHg 24%
    17:00 +15°C° 0.2 mm 6 mps 469 mmHg 29%
    18:00 +14°C° 0.8 mm 5 mps 469 mmHg 34%
    19:00 +13°C° 0.8 mm 5 mps 469 mmHg 39%
    20:00 +12°C° 0.8 mm 5 mps 469 mmHg 44%
    21:00 +11°C° 0.2 mm 4 mps 469 mmHg 49%
    22:00 +11°C° 0.2 mm 3 mps 469 mmHg 54%
    23:00 +10°C° 0.2 mm 3 mps 469 mmHg 59%

    Tomorrow, 14 November, Wednesday

    Time Temperature Precipitation Wind Pressure Humidity
    00:00 +10°C° 0 mm 2 mps 469 mmHg 59%
    01:00 +10°C° 0 mm 2 mps 469 mmHg 59%
    02:00 +9°C° 0 mm 2 mps 468 mmHg 59%
    03:00 +10°C° 0 mm 1 mps 468 mmHg 60%
    04:00 +10°C° 0 mm 1 mps 468 mmHg 60%
    05:00 +10°C° 0 mm 1 mps 468 mmHg 61%
    06:00 +10°C° 0 mm 1 mps 468 mmHg 59%
    07:00 +10°C° 0 mm 1 mps 469 mmHg 57%
    08:00 +11°C° 0 mm 1 mps 469 mmHg 55%
    09:00 +12°C° 0 mm 2 mps 470 mmHg 49%
    10:00 +13°C° 0 mm 2 mps 471 mmHg 44%
    11:00 +13°C° 0 mm 3 mps 471 mmHg 39%
    12:00 +14°C° 0.1 mm 3 mps 471 mmHg 37%
    13:00 +14°C° 0.1 mm 3 mps 471 mmHg 36%
    14:00 +15°C° 0.1 mm 4 mps 471 mmHg 35%
    15:00 +14°C° 0.2 mm 4 mps 470 mmHg 38%
    16:00 +14°C° 0.2 mm 4 mps 469 mmHg 41%
    17:00 +13°C° 0.2 mm 4 mps 469 mmHg 43%
    18:00 +12°C° 0.1 mm 4 mps 469 mmHg 48%
    19:00 +11°C° 0.1 mm 4 mps 469 mmHg 53%
    20:00 +11°C° 0.1 mm 4 mps 468 mmHg 57%
    21:00 +10°C° 0 mm 3 mps 469 mmHg 62%
    22:00 +9°C° 0 mm 3 mps 469 mmHg 67%
    23:00 +9°C° 0 mm 3 mps 469 mmHg 72%

    Day after tomorrow, 15 November, Thursday

    Time Temperature Precipitation Wind Pressure Humidity
    00:00 +9°C° 0 mm 2 mps 468 mmHg 73%
    01:00 +8°C° 0 mm 2 mps 468 mmHg 74%
    02:00 +8°C° 0 mm 2 mps 467 mmHg 75%
    03:00 +8°C° 0 mm 2 mps 467 mmHg 75%
    04:00 +8°C° 0 mm 2 mps 467 mmHg 75%
    05:00 +9°C° 0 mm 1 mps 467 mmHg 75%
    06:00 +9°C° 0 mm 1 mps 468 mmHg 71%
    07:00 +9°C° 0 mm 1 mps 468 mmHg 67%
    08:00 +10°C° 0 mm 1 mps 469 mmHg 63%
    09:00 +10°C° 0 mm 2 mps 469 mmHg 56%
    10:00 +12°C° 0 mm 2 mps 470 mmHg 48%
    11:00 +14°C° 0 mm 2 mps 471 mmHg 40%
    12:00 +15°C° 0.1 mm 2 mps 471 mmHg 37%
    13:00 +15°C° 0.1 mm 2 mps 471 mmHg 34%
    14:00 +16°C° 0.1 mm 3 mps 470 mmHg 30%
    15:00 +16°C° 0.2 mm 3 mps 470 mmHg 34%
    16:00 +15°C° 0.2 mm 4 mps 469 mmHg 37%
    17:00 +14°C° 0.2 mm 5 mps 469 mmHg 40%
    18:00 +13°C° 0 mm 4 mps 469 mmHg 46%
    19:00 +12°C° 0 mm 4 mps 468 mmHg 53%
    20:00 +11°C° 0 mm 3 mps 468 mmHg 60%
    21:00 +10°C° 0 mm 3 mps 468 mmHg 63%
    22:00 +10°C° 0 mm 3 mps 468 mmHg 67%
    23:00 +9°C° 0 mm 2 mps 469 mmHg 70%

    16 November, Friday

    Time Temperature Precipitation Wind Pressure Humidity
    00:00 +9°C° 0 mm 2 mps 468 mmHg 72%
    01:00 +8°C° 0 mm 2 mps 468 mmHg 74%
    02:00 +9°C° 0 mm 1 mps 467 mmHg 75%
    03:00 +9°C° 0 mm 1 mps 467 mmHg 75%
    04:00 +9°C° 0 mm 1 mps 467 mmHg 75%
    05:00 +8°C° 0 mm 0 mps 467 mmHg 75%
    06:00 +9°C° 0 mm 1 mps 468 mmHg 71%
    07:00 +10°C° 0 mm 1 mps 469 mmHg 66%
    08:00 +10°C° 0 mm 1 mps 470 mmHg 62%
    09:00 +12°C° 0 mm 2 mps 470 mmHg 54%
    10:00 +12°C° 0 mm 3 mps 471 mmHg 45%
    11:00 +14°C° 0 mm 4 mps 472 mmHg 37%
    12:00 +14°C° 0 mm 5 mps 472 mmHg 37%
    13:00 +15°C° 0 mm 5 mps 471 mmHg 37%
    14:00 +15°C° 0 mm 6 mps 471 mmHg 38%
    15:00 +14°C° 0.3 mm 6 mps 470 mmHg 43%
    16:00 +13°C° 0.3 mm 6 mps 469 mmHg 48%
    17:00 +11°C° 0.3 mm 6 mps 468 mmHg 53%
    18:00 +10°C° 0.4 mm 5 mps 468 mmHg 58%
    19:00 +10°C° 0.4 mm 5 mps 468 mmHg 64%
    20:00 +10°C° 0.4 mm 4 mps 468 mmHg 69%
    21:00 +8°C° 0.1 mm 4 mps 468 mmHg 70%
    22:00 +9°C° 0.1 mm 3 mps 468 mmHg 71%
    23:00 +9°C° 0.1 mm 3 mps 468 mmHg 73%

    17 November, Saturday

    Time Temperature Precipitation Wind Pressure Humidity
    00:00 +8°C° 0 mm 3 mps 468 mmHg 73%
    01:00 +8°C° 0 mm 2 mps 468 mmHg 74%
    02:00 +8°C° 0 mm 2 mps 467 mmHg 74%
    03:00 +8°C° 0 mm 2 mps 467 mmHg 73%
    04:00 +9°C° 0 mm 1 mps 467 mmHg 72%
    05:00 +9°C° 0 mm 1 mps 467 mmHg 70%
    06:00 +10°C° 0 mm 1 mps 468 mmHg 66%
    07:00 +10°C° 0 mm 1 mps 469 mmHg 62%
    08:00 +11°C° 0 mm 1 mps 469 mmHg 58%
    09:00 +13°C° 0.3 mm 1 mps 470 mmHg 51%
    10:00 +14°C° 0.3 mm 2 mps 470 mmHg 44%
    11:00 +15°C° 0.3 mm 2 mps 471 mmHg 37%
    12:00 +16°C° 0.2 mm 2 mps 471 mmHg 35%
    13:00 +17°C° 0.2 mm 3 mps 471 mmHg 32%
    14:00 +18°C° 0.2 mm 4 mps 470 mmHg 30%
    15:00 +15°C° 1.7 mm 4 mps 469 mmHg 38%
    16:00 +14°C° 1.7 mm 3 mps 468 mmHg 46%
    17:00 +12°C° 1.7 mm 3 mps 467 mmHg 53%
    18:00 +12°C° 2.2 mm 3 mps 467 mmHg 58%
    19:00 +11°C° 2.2 mm 4 mps 467 mmHg 63%
    20:00 +10°C° 2.2 mm 4 mps 467 mmHg 68%
    21:00 +10°C° 0.5 mm 3 mps 467 mmHg 66%
    22:00 +10°C° 0.5 mm 2 mps 468 mmHg 64%
    23:00 +10°C° 0.5 mm 2 mps 468 mmHg 62%

    18 November, Sunday

    Time Temperature Precipitation Wind Pressure Humidity
    00:00 +11°C° 0.2 mm 1 mps 468 mmHg 62%
    01:00 +11°C° 0.2 mm 1 mps 468 mmHg 62%
    02:00 +10°C° 0.2 mm 1 mps 467 mmHg 62%
    03:00 +10°C° 0 mm 1 mps 467 mmHg 65%
    04:00 +9°C° 0 mm 0 mps 467 mmHg 68%
    05:00 +8°C° 0 mm 0 mps 467 mmHg 71%
    06:00 +10°C° 0 mm 1 mps 468 mmHg 66%
    07:00 +11°C° 0 mm 1 mps 468 mmHg 62%
    08:00 +11°C° 0 mm 1 mps 469 mmHg 58%
    09:00 +13°C° 0 mm 2 mps 470 mmHg 52%
    10:00 +13°C° 0 mm 3 mps 470 mmHg 47%
    11:00 +14°C° 0 mm 4 mps 471 mmHg 42%
    12:00 +14°C° 0.4 mm 4 mps 471 mmHg 42%
    13:00 +15°C° 0.4 mm 5 mps 470 mmHg 43%
    14:00 +15°C° 0.4 mm 6 mps 470 mmHg 43%
    15:00 +14°C° 0.5 mm 6 mps 469 mmHg 48%
    16:00 +13°C° 0.5 mm 6 mps 469 mmHg 52%
    17:00 +11°C° 0.5 mm 6 mps 468 mmHg 57%
    18:00 +12°C° 1.4 mm 5 mps 468 mmHg 62%
    19:00 +10°C° 1.4 mm 5 mps 468 mmHg 68%
    20:00 +10°C° 1.4 mm 4 mps 468 mmHg 73%
    21:00 +8°C° 0.3 mm 4 mps 468 mmHg 74%
    22:00 +9°C° 0.3 mm 3 mps 468 mmHg 76%
    23:00 +9°C° 0.3 mm 3 mps 468 mmHg 77%
    Show more